Regional Weather Roundup
Issued by NWS

Home | Current Version | Previous Version | Graphics & Text | Print | Product List | Glossary On
Versions: 1 2 3 4 5 6 7 8 9 10 11 12 13 14 15 16 17 18 19 20 21 22 23 24 25 26 27 28 29 30 31 32 33 34 35 36 37 38 39 40 41 42 43 44 45 46 47 48 49 50
201
ASUS45 KCYS 240910
RWRWY

WYOMING REGIONAL WEATHER ROUNDUP
NATIONAL WEATHER SERVICE CHEYENNE WY
300 AM MDT SUN SEP 24 2017

NOTE:  "FAIR" INDICATES FEW OR NO CLOUDS BELOW 12,000 FEET
WITH NO SIGNIFICANT WEATHER AND/OR OBSTRUCTIONS TO VISIBILITY.

WYZ001-241000-
YELLOWSTONE NATIONAL PARK

CITY           SKY/WX    TMP DP  RH WIND       PRES   REMARKS
LK YELLOWSTONE NOT AVBL
W YELLOWSTONE  NOT AVBL

$$
WYZ002>013-054>058-071-098>099-241000-
NORTHERN WYOMING

CITY           SKY/WX    TMP DP  RH WIND       PRES   REMARKS
JACKSON        CLOUDY    37  32  82 N16       29.97S WCI  28
CODY           MOCLDY    37  32  82 N5        30.08F WCI  33
GREYBULL       CLOUDY    44  41  89 CALM      30.04S
WORLAND        CLOUDY    41  41 100 SW6       30.06R
SHERIDAN       LGT RAIN  40  39  97 NE3       30.09R
BUFFALO        FOG       37  35  92 N10       30.07S VSB 1/4 WCI  30
GILLETTE       CLOUDY    39  39 100 N14       30.05R WCI  31
HULETT         CLOUDY    41  41 100 N8        30.05R FOG
NEWCASTLE      CLOUDY    43  41  93 N7        30.00F

$$
WYZ014>020-022>026-101>103-241000-
CENTRAL WYOMING

CITY           SKY/WX    TMP DP  RH WIND       PRES   REMARKS
BIG PINEY      CLOUDY    37  36  96 CALM      29.96S
PINEDALE       FAIR      32  32 100 CALM      29.96F
DUBOIS         CLOUDY    32  32 100 SE9       30.02F WCI  24
LANDER         LGT RAIN  37  36  96 NW5       30.05R WCI  33
RIVERTON       CLOUDY    38  34  85 NE14      30.04F WCI  30
CASPER         CLOUDY    37  36  96 N10       30.03F FOG     WCI  30
DOUGLAS        CLOUDY    41  38  89 NW8       30.02F

$$
WYZ021-027>030-104>119-241000-
SOUTHERN WYOMING

CITY           SKY/WX    TMP DP  RH WIND       PRES   REMARKS
EVANSTON       FOG       34  34 100 N8        29.91F VSB 1/4 WCI  27
KEMMERER       MIX PCPN  32  32 100 NE9       29.95S WCI  24
FORT BRIDGER   LGT SNOW  35  35 100 E5        29.96F WCI  30
ROCK SPRINGS   CLOUDY    36  32  85 NE21G30   29.94S WCI  25
DIXON          CLOUDY    39  35  86 CALM      29.91F
RAWLINS        CLOUDY    40  35  83 N12       29.97S WCI  33
SARATOGA       CLOUDY    37  37 100 CALM      29.95F FOG
LARAMIE        CLOUDY    39  37  92 SE12      29.96F WCI  32
CHEYENNE       CLOUDY    43  41  93 SW5       29.98S FOG
TORRINGTON     CLOUDY    44  44 100 NW7       29.97F
PINE BLUFFS    CLOUDY    43  43 100 MISG      29.97F

$$




USA.gov is the U.S. government's official web portal to all federal, state and local government web resources and services.